FW1504 Weather Reports


time (UTC)temp
F
wind
direction
speed
knots
gust
knots
rain 1hr
in
rain 24hr
in
rain mn
in
humidity
%
barometer
mb
20260507174547 70 360 0.9 4.3 0.00 0.00 0.00 48 1018.7
20260507173039 68 360 0.9 5.2 0.00 0.00 0.00 49 1018.9
20260507171538 67 213 0.0 2.6 0.00 0.00 0.00 52 1019.3
20260507170043 67 234 1.7 6.1 0.00 0.00 0.00 47 1019.6
20260507164534 67 159 0.9 5.2 0.00 0.00 0.00 55 1019.8
20260507163034 67 360 1.7 4.3 0.00 0.00 0.00 46 1019.8
20260507161530 67 360 0.9 3.5 0.00 0.00 0.00 56 1019.9
20260507160033 67 360 1.7 4.3 0.00 0.00 0.00 53 1020.1
20260507154525 65 360 0.0 2.6 0.00 0.00 0.00 48 1020.1
20260507153022 65 173 0.9 4.3 0.00 0.00 0.00 52 1020.2
20260507151516 65 164 1.7 3.5 0.00 0.00 0.00 51 1020.7
20260507150013 66 163 0.9 5.2 0.00 0.00 0.00 51 1020.9
20260507144511 64 360 0.9 3.5 0.00 0.00 0.00 51 1020.9
20260507143008 64 157 0.0 4.3 0.00 0.00 0.00 53 1021.1
20260507141504 63 156 0.0 1.7 0.00 0.00 0.00 53 1021.2
20260507140103 61 360 0.0 0.9 0.00 0.00 0.00 58 1021.3
20260507134557 59 142 0.0 0.9 0.00 0.00 0.00 62 1021.4
20260507133055 56 360 0.0 0.9 0.00 0.00 0.00 67 1021.4
20260507131558 53 143 0.0 0.0 0.00 0.00 0.00 74 1021.3
20260507130053 50 360 0.0 0.0 0.00 0.00 0.00 79 1021.3
20260507124538 48 142 0.0 0.0 0.00 0.00 0.00 82 1021.2
20260507123034 47 142 0.0 0.0 0.00 0.00 0.00 82 1021.0
20260507121531 46 142 0.0 0.0 0.00 0.00 0.00 82 1020.8
20260507120037 46 138 0.0 0.0 0.00 0.00 0.00 81 1020.7
20260507114525 47 136 0.0 0.0 0.00 0.00 0.00 81 1020.4
20260507113024 47 124 0.0 0.0 0.00 0.00 0.00 81 1020.4
20260507111524 48 124 0.0 0.0 0.00 0.00 0.00 80 1020.3
20260507110022 48 124 0.0 0.0 0.00 0.00 0.00 80 1020.2
20260507104521 48 124 0.0 0.0 0.00 0.00 0.00 80 1020.3
20260507103020 48 124 0.0 0.0 0.00 0.00 0.00 80 1020.3
20260507101519 48 124 0.0 0.0 0.00 0.00 0.00 80 1019.9
20260507100025 48 124 0.0 0.0 0.00 0.00 0.00 79 1019.8
20260507094517 49 124 0.0 0.0 0.00 0.00 0.00 80 1019.8
20260507093017 48 124 0.0 0.0 0.00 0.00 0.00 82 1019.8
20260507091517 48 124 0.0 0.0 0.00 0.00 0.00 82 1019.4
20260507090021 47 124 0.0 0.0 0.00 0.00 0.00 82 1019.4
20260507084515 47 124 0.0 0.0 0.00 0.00 0.00 82 1019.6
20260507083013 47 124 0.0 0.0 0.00 0.00 0.00 82 1019.7
20260507081522 47 124 0.0 0.0 0.00 0.00 0.00 80 1019.6
20260507080010 48 124 0.0 0.0 0.00 0.00 0.00 80 1019.5
20260507074519 48 124 0.0 0.0 0.00 0.00 0.00 79 1019.5
20260507073006 48 124 0.0 0.0 0.00 0.00 0.00 79 1019.7
20260507071507 48 124 0.0 0.0 0.00 0.00 0.00 79 1019.7
20260507070008 49 124 0.0 0.0 0.00 0.00 0.00 78 1019.7
20260507064502 49 124 0.0 0.0 0.00 0.00 0.00 77 1020.1
20260507063100 50 124 0.0 0.0 0.00 0.00 0.00 77 1020.3
20260507061606 50 124 0.0 0.0 0.00 0.00 0.00 76 1020.3
20260507060056 51 124 0.0 0.0 0.00 0.00 0.00 75 1020.1
20260507054637 51 124 0.0 0.9 0.00 0.00 0.00 75 1020.3
20260507053054 51 124 0.0 0.9 0.00 0.00 0.00 75 1020.4
20260507051551 51 124 0.0 0.9 0.00 0.00 0.00 76 1020.1
20260507050054 51 124 0.0 0.0 0.00 0.00 0.00 77 1019.7
20260507044553 52 124 0.0 0.0 0.00 0.00 0.00 77 1019.7
20260507043046 52 124 0.0 0.0 0.00 0.00 0.00 76 1019.6
20260507041549 53 125 0.0 0.9 0.00 0.00 0.00 75 1018.5
20260507040046 53 125 0.0 0.0 0.00 0.00 0.00 74 1018.8
20260507034554 54 125 0.0 0.0 0.00 0.00 0.00 73 1019.2
20260507033045 55 125 0.0 0.0 0.00 0.00 0.00 71 1019.1
20260507031600 55 125 0.0 0.0 0.00 0.00 0.00 70 1019.0
20260507030050 56 125 0.0 0.9 0.00 0.00 0.00 68 1018.6
20260507024543 57 125 0.0 0.9 0.00 0.00 0.00 68 1018.5
20260507023038 57 125 0.0 0.9 0.00 0.00 0.00 67 1018.5
20260507021539 58 125 0.0 1.7 0.00 0.00 0.00 66 1018.3
20260507020038 58 125 0.0 1.7 0.00 0.00 0.00 64 1018.0
20260507014547 59 126 0.0 2.6 0.00 0.00 0.00 63 1017.6
20260507013037 60 132 0.0 2.6 0.00 0.00 0.00 62 1017.4
20260507011538 60 128 0.9 3.5 0.00 0.00 0.00 61 1017.4
20260507010040 61 119 0.0 3.5 0.00 0.00 0.00 60 1017.4
20260507004534 61 123 0.9 2.6 0.00 0.00 0.00 59 1017.3
20260507003035 61 117 0.0 1.7 0.00 0.00 0.00 59 1017.2
20260507001532 61 360 0.0 2.6 0.00 0.00 0.00 58 1017.0
20260507000132 62 360 1.7 4.3 0.00 0.00 0.00 57 1017.0
20260506234531 62 129 0.9 3.5 0.00 0.00 0.00 57 1016.7
20260506233033 62 128 0.9 4.3 0.00 0.00 0.00 57 1016.7
20260506231529 63 107 0.9 5.2 0.00 0.00 0.00 56 1016.6
20260506230028 62 28 0.9 6.1 0.00 0.00 0.00 58 1016.5
20260506224527 62 86 0.9 4.3 0.00 0.00 0.00 58 1016.5
20260506223026 62 35 1.7 7.8 0.00 0.00 0.00 58 1016.5
20260506221526 62 69 1.7 7.0 0.00 0.00 0.00 57 1016.3
20260506220026 63 101 1.7 7.8 0.00 0.00 0.00 56 1016.3
20260506214525 63 336 1.7 7.0 0.00 0.00 0.00 55 1016.3
20260506213024 64 216 1.7 4.3 0.00 0.00 0.00 57 1016.3
20260506211522 63 51 1.7 7.8 0.00 0.00 0.00 57 1016.3
20260506210023 63 43 2.6 7.8 0.00 0.00 0.00 55 1016.2
20260506204524 63 26 2.6 9.6 0.00 0.00 0.00 55 1016.4
20260506203021 63 15 2.6 8.7 0.00 0.00 0.00 55 1016.4
20260506201521 63 15 1.7 6.1 0.00 0.00 0.00 57 1016.5
20260506200019 63 34 0.9 8.7 0.00 0.00 0.00 56 1016.5
20260506194519 63 132 1.7 7.8 0.00 0.00 0.00 55 1016.5
20260506193016 62 42 1.7 6.1 0.00 0.00 0.00 57 1016.5
20260506191514 62 80 1.7 7.0 0.00 0.00 0.00 57 1016.7
20260506190013 62 5 1.7 6.1 0.00 0.00 0.00 57 1016.7
20260506184510 61 123 1.7 7.8 0.00 0.00 0.00 57 1016.8
20260506183008 60 104 1.7 7.0 0.00 0.00 0.00 60 1017.3
20260506181505 60 82 0.9 6.1 0.00 0.00 0.00 60 1017.7
20260506180005 59 146 2.6 8.7 0.00 0.00 0.00 62 1017.9